User: anonymous   Login
Location: Grandview
(34.8900°N, 117.1058°W)
Time: 21:19:37
(UTC-07:00)
Language:

KKS-1 - Orbit

View from above orbital plane
View from above orbital plane
View from above satellite
View from above satellite

Ground track
Ground track

The orbit data is extracted from the following two-line orbital elements,

1 33499U 09002H   18141.59272565 +.00000108 +00000-0 +23979-4 0  9998
2 33499 098.3557 322.4972 0009697 025.1785 334.9894 14.75327272500831
Epoch (UTC): 21 May 2018 14:13:31
Eccentricity: 0.0009697
inclination: 98.3557°
perigee height: 637 km
apogee height: 651 km
right ascension of ascending node: 322.4972°
argument of perigee: 25.1785°
revolutions per day: 14.75327272
mean anomaly at epoch: 334.9894°
orbit number at epoch: 50083

The dashed part of the orbit path shows where the satellite is in the earth's shadow,  

DLR